McMinnville, OR

3:29 AM PST on December 14, 2017 (GMT -0800)
McMinnville Municipal

Weather History for KMMV - April, 2014

Change the Weather History Date:

Saturday, April 19, 2014

  Actual Average Record
Temperature  
Mean Temperature 49 °F 50 °F  
Max Temperature 60 °F 61 °F 83 °F (2016)
Min Temperature 37 °F 39 °F 27 °F (1977)
Degree Days  
Heating Degree Days 16 15  
Month to date heating degree days 244 299  
Since 1 July heating degree days 4175 4250  
Cooling Degree Days 0 0  
Month to date cooling degree days 0 0  
Year to date cooling degree days 0 0  
Moisture  
Dew Point 44 °F    
Average Humidity 81    
Maximum Humidity 100    
Minimum Humidity 61    
Precipitation  
Precipitation 0.06 in 0.09 in 0.98 in (1965)
Month to date precipitation 1.28 2.02  
Year to date precipitation 16.89 16.59  
Sea Level Pressure  
Sea Level Pressure 30.01 in    
Wind  
Wind Speed 6 mph (SW)    
Max Wind Speed 22 mph    
Max Gust Speed 33 mph    
Visibility 10 miles    
Events Rain    
T = Trace of Precipitation, MM = Missing Value Source: NWS Daily Summary

Daily Weather History Graph

Daily Weather History Graph

Search for Another Location

Airport or City:

Trip Planner

Search our weather history database for the weather conditions in past years. The results will help you decide how hot, cold, wet, or windy it might be!

Date:

Astronomy

Apr. 19, 2014 Rise Set
Actual Time 6:20 AM PDT 8:03 PM PDT
Civil Twilight 5:49 AM PDT 8:34 PM PDT
Nautical Twilight 5:11 AM PDT 9:12 PM PDT
Astronomical Twilight 4:30 AM PDT 9:54 PM PDT
Moon No Moon Rise 9:38 AM PDT (4/19)
Length of Visible Light 14h 45m
Length of Day
13h 43m
Waning Gibbous, 77% of the Moon is Illuminated
Apr 19
Waning Gibbous
Apr 22
Last Quarter
Apr 28
New
May 6
First Quarter
May 14
Full

Hourly Weather History & Observations

Time (PDT) Temp. Windchill Dew Point Humidity Pressure Visibility Wind Dir Wind Speed Gust Speed Precip Events Conditions
12:53 AM 41.0 °F - 39.0 °F 93% 29.88 in 10.0 mi Calm Calm - N/A   Clear
1:53 AM 41.0 °F - 39.9 °F 96% 29.88 in 10.0 mi Calm Calm - N/A   Clear
2:53 AM 39.9 °F - 39.0 °F 97% 29.86 in 10.0 mi Calm Calm - N/A   Clear
3:53 AM 39.0 °F - 37.9 °F 96% 29.86 in 10.0 mi Calm Calm - N/A   Clear
5:53 AM 37.9 °F 35.5 °F 37.0 °F 97% 29.86 in 10.0 mi East 3.5 mph - N/A   Clear
6:53 AM 41.0 °F - 39.9 °F 96% 29.86 in 10.0 mi Calm Calm - N/A   Overcast
7:53 AM 43.0 °F - 42.1 °F 97% 29.87 in 10.0 mi Calm Calm - N/A   Overcast
8:53 AM 45.0 °F - 43.0 °F 93% 29.86 in 10.0 mi Calm Calm - N/A   Overcast
9:53 AM 48.0 °F - 44.1 °F 86% 29.87 in 10.0 mi West 5.8 mph - 0.00 in Rain Light Rain
10:53 AM 50.0 °F - 44.1 °F 80% 29.90 in 10.0 mi South 12.7 mph - 0.04 in Rain Light Rain
11:53 AM 53.1 °F - 51.1 °F 93% 29.94 in 10.0 mi South 17.3 mph - 0.00 in   Overcast
12:42 PM 57.0 °F - 50.0 °F 77% 29.96 in 10.0 mi South 17.3 mph 26.5 mph N/A   Mostly Cloudy
12:49 PM 57.2 °F - 50.0 °F 77% 29.96 in - North - - N/A   Unknown
12:53 PM 57.0 °F - 50.0 °F 77% 29.96 in - North - - N/A   Unknown
1:53 PM 59.0 °F - 48.0 °F 67% 29.99 in 10.0 mi SW 21.9 mph 27.6 mph 0.01 in   Mostly Cloudy
2:53 PM 54.0 °F - 48.0 °F 80% 30.05 in 7.0 mi WSW 24.2 mph 28.8 mph 0.00 in Rain Light Rain
3:53 PM 57.0 °F - 46.9 °F 69% 30.07 in 10.0 mi SW 18.4 mph 29.9 mph 0.01 in   Mostly Cloudy
4:53 PM 57.9 °F - 45.0 °F 62% 30.10 in 10.0 mi SW 15.0 mph - N/A   Mostly Cloudy
5:53 PM 55.9 °F - 43.0 °F 62% 30.14 in 10.0 mi SW 12.7 mph - 0.00 in   Mostly Cloudy
6:53 PM 54.0 °F - 43.0 °F 66% 30.16 in 10.0 mi WSW 11.5 mph - N/A   Scattered Clouds
7:53 PM 50.0 °F - 44.1 °F 80% 30.18 in 10.0 mi SW 6.9 mph - 0.00 in   Scattered Clouds
8:53 PM 46.9 °F - 43.0 °F 86% 30.21 in 10.0 mi SSW 8.1 mph - N/A   Clear
9:53 PM 46.0 °F 43.1 °F 44.1 °F 93% 30.23 in 10.0 mi SSW 5.8 mph - N/A   Overcast
10:53 PM 46.9 °F - 44.1 °F 90% 30.25 in 10.0 mi SW 6.9 mph - N/A   Overcast
11:53 PM 44.1 °F 40.8 °F 42.1 °F 93% 30.26 in 10.0 mi South 5.8 mph - N/A   Mostly Cloudy